SCP
0 0 0 0 0 0 0 0 0 0 0 0 0 0 0 0 0 0 0 0 0 0 0 0 0 0 0 0 0 0 0 0 0 1 1 1 2 1 1 1 1 1 1 0
0 0 0 0 0 0 0 0 0 0 0 0 0 0 0 0 0 0 0 0 0 0 0 0 0 0 0 0 0 0 0 0 0 0 1 1 2 2 2 1 1 1 1 1
0 0 0 0 0 0 0 0 0 0 0 0 0 0 0 0 0 0 0 0 0 0 0 0 0 0 0 0 0 0 0 0 0 0 0 1 1 2 2 2 2 1 1 1
0 0 0 0 0 0 0 0 0 0 0 0 0 0 0 0 0 0 0 0 0 0 0 0 0 0 0 0 0 0 0 0 0 0 0 0 1 1 1 2 2 2 1 1
0 0 0 0 0 0 0 0 0 0 0 0 0 0 0 0 0 0 0 0 0 0 0 0 0 0 0 0 0 0 0 0 0 0 0 0 0 1 1 1 2 2 2 2
0 0 0 0 0 0 0 0 0 0 0 0 0 0 0 0 0 0 0 0 0 0 0 0 0 0 0 0 0 0 0 0 0 0 0 0 0 0 1 1 1 2 2 2
0 0 0 0 0 0 0 0 0 0 0 0 0 0 0 0 0 0 0 0 0 0 0 0 0 0 0 0 0 0 0 0 0 0 0 0 0 0 0 1 1 1 2 2
0 0 0 0 0 0 0 0 0 0 0 0 0 0 0 0 0 0 0 0 0 0 0 0 0 0 0 0 0 0 0 0 0 0 0 0 0 0 0 0 1 1 1 2
0 0 0 0 0 0 0 0 0 0 0 0 0 0 0 0 0 0 0 0 0 0 0 0 0 0 0 0 0 0 0 0 0 0 0 0 0 0 0 0 0 1 1 1
0 0 0 0 0 0 0 0 0 0 0 0 0 0 0 0 0 0 0 0 0 0 0 0 0 0 0 0 0 0 0 0 0 0 0 0 0 0 0 0 0 1 1 1
0 0 0 0 0 0 0 0 0 0 0 0 0 0 0 0 0 0 0 0 0 0 0 0 0 0 0 0 0 0 0 0 0 0 0 0 0 0 0 0 0 0 0 1
0 0 0 0 0 0 0 0 0 0 0 0 0 0 0 0 0 0 0 0 0 0 0 0 0 0 0 0 0 0 0 0 0 0 0 0 0 0 0 0 0 0 0 0
0 0 0 0 0 0 0 0 0 0 0 0 0 0 0 0 0 0 0 0 0 0 0 0 0 0 0 0 0 0 0 0 0 0 0 0 0 0 0 0 0 0 0 0
0 0 0 0 0 0 0 0 0 0 0 0 0 0 0 0 0 0 0 0 0 0 0 0 0 0 0 0 0 0 0 0 0 0 0 0 0 0 0 0 0 0 0 0
0 0 0 0 0 0 0 0 0 0 0 0 0 0 0 0 0 0 0 -0 0 0 0 0 0 0 0 0 0 0 0 0 0 0 0 0 0 0 0 0 0 0 0 0
0 0 0 0 0 0 0 0 0 0 0 0 0 0 0 0 0 0 0 -0 0 0 0 0 0 0 0 0 0 0 0 0 0 0 0 0 0 0 0 0 0 0 0 0
0 0 0 0 0 0 0 0 0 0 0 0 0 0 0 0 0 0 0 0 0 0 0 0 0 0 0 0 0 0 0 0 0 0 0 0 0 0 0 0 0 0 0 0
0 0 0 0 0 0 0 0 0 0 0 0 0 0 0 0 0 0 0 0 0 0 0 0 0 0 0 0 0 0 0 0 0 0 0 0 0 0 0 0 0 0 0 0
0 0 0 0 0 0 0 0 0 0 0 0 0 0 0 0 0 0 0 0 0 0 0 -0 -0 -0 -0 -0 0 0 0 0 0 0 0 0 0 0 0 0 0 0 0 0
0 0 0 0 0 0 0 0 0 0 0 0 0 0 0 0 0 0 0 0 0 0 0 -0 -0 -0 -0 -0 -0 -0 0 0 0 0 0 0 0 0 0 0 0 0 0 0
0 0 0 0 0 0 0 0 0 0 0 0 0 0 0 0 0 0 0 0 0 0 0 -0 -0 -0 -0 -0 -0 -0 -0 0 -0 -0 -0 -0 0 0 0 0 0 0 0 0
0 0 0 0 0 0 0 0 0 0 0 0 0 0 0 0 0 0 0 0 0 0 0 0 -0 -0 -0 -0 -0 -0 -0 -0 -0 -0 -0 -0 -0 -0 0 0 0 0 0 0
0 0 0 0 0 0 0 0 0 0 0 0 0 0 0 0 0 0 0 0 0 0 0 0 0 0 -0 -0 -0 -0 -0 -0 -0 -0 -0 -0 -0 -0 -0 0 0 0 0 0
0 0 0 0 0 0 0 0 0 0 0 0 0 0 0 0 0 0 0 0 0 0 0 0 0 0 0 0 0 0 0 0 0 -0 -0 -0 -0 -0 -0 -0 -0 0 0 -0
0 0 0 0 0 0 0 0 0 0 0 0 0 0 0 0 0 0 0 0 0 0 0 0 0 0 0 0 0 0 0 0 0 0 0 0 0 0 0 0 0 0 0 0
0 0 0 0 0 0 0 0 0 0 0 0 0 0 0 0 0 0 0 0 0 0 0 0 0 0 0 0 0 0 0 0 0 0 0 0 0 0 0 0 0 0 0 0
Wind_Speed
13 11 15 18 16 6 12 12 11 9 5 7 9 11 11 11 11 12 12 10 8 7 6 5 5 5 6 6 8 9 10 11 10 9 10 11 12 12 11 12 14 15 14 15
11 14 15 14 12 8 12 12 10 6 3 4 5 11 11 7 7 6 6 5 3 2 2 3 4 4 4 4 5 7 8 9 10 10 10 11 12 11 12 10 12 14 15 15
10 9 14 16 15 11 10 10 9 6 5 3 4 7 4 3 3 3 3 3 3 4 4 5 6 6 5 5 6 5 7 8 9 10 9 9 9 10 9 11 12 15 16 16
4 8 15 17 16 12 8 5 7 6 5 3 2 3 5 5 7 7 7 7 6 5 6 6 7 7 7 6 6 6 7 7 7 7 9 13 12 13 15 12 12 14 16 16
5 9 16 17 14 11 6 7 5 3 2 2 4 5 5 7 8 8 7 6 5 5 6 6 7 7 7 7 7 7 7 7 6 6 8 11 13 13 12 12 14 14 13 15
5 4 3 6 5 8 11 8 6 3 2 5 5 7 5 7 9 9 6 4 4 5 6 6 7 7 7 8 8 8 8 8 7 6 7 9 12 14 14 15 13 12 10 11
5 4 4 4 8 5 6 7 4 5 5 5 4 5 4 7 5 5 4 1 4 6 6 7 8 9 9 9 9 9 9 9 9 8 8 8 10 12 15 14 14 13 11 10
5 5 2 2 4 7 7 6 4 5 6 4 5 6 3 4 2 4 5 4 4 5 6 7 8 9 9 9 10 10 10 11 10 10 9 9 9 8 9 12 12 12 11 11
6 5 3 4 3 6 7 5 2 1 1 3 5 4 3 4 5 6 4 2 4 6 6 7 8 8 9 9 10 10 11 11 11 11 11 10 10 9 10 11 11 10 10 9
6 8 4 3 5 5 1 5 4 4 4 5 4 5 8 12 11 7 2 4 6 7 7 7 8 9 9 9 9 10 10 10 11 11 10 8 10 9 9 9 10 9 9 8
5 7 5 4 4 6 6 4 3 3 2 4 3 4 6 12 8 3 3 6 7 8 8 7 8 8 8 8 9 10 10 11 11 11 10 10 9 9 8 7 7 7 6 5
3 5 5 2 2 2 3 4 6 4 4 3 3 3 4 5 3 3 6 7 6 6 6 7 7 8 8 9 10 10 10 11 11 11 10 10 9 8 7 6 5 4 3 3
5 6 7 4 3 4 5 5 4 2 3 4 4 3 4 4 4 4 6 7 6 5 6 6 7 7 8 9 9 10 10 11 11 11 10 9 9 8 7 6 5 3 2 1
4 3 2 4 3 7 7 8 9 6 5 5 7 2 3 4 5 6 7 6 6 5 5 6 7 7 8 9 9 9 10 11 11 10 10 10 10 9 8 7 6 5 4 4
3 3 2 1 2 4 5 9 12 11 8 7 5 5 8 7 8 8 7 6 5 5 5 6 7 7 8 8 9 9 9 10 10 10 10 10 10 9 9 9 9 9 8 8
3 4 3 1 2 4 6 10 13 13 13 13 11 11 10 7 5 6 6 5 4 4 4 5 6 7 8 8 8 9 9 9 9 9 9 9 9 10 10 10 10 10 10 10
5 5 3 2 2 3 9 12 16 11 11 11 14 10 7 7 7 7 5 3 2 2 3 4 5 6 6 7 7 8 8 7 8 8 9 9 9 10 10 10 10 10 10 11
7 5 2 2 3 7 1 2 8 13 13 13 11 11 10 10 8 4 2 1 0 1 2 3 4 5 5 5 6 6 6 7 8 8 8 8 9 9 9 10 10 10 9 10
5 5 3 2 4 7 4 5 7 8 7 12 15 14 12 7 5 3 3 2 2 2 2 2 3 3 4 5 5 5 6 7 8 8 8 8 8 8 9 9 9 9 9 10
3 3 3 4 4 5 1 3 5 5 4 4 8 9 7 3 4 2 6 5 4 3 3 2 3 3 4 5 5 6 7 7 8 7 7 7 8 8 9 9 9 8 9 9
6 5 6 6 6 7 2 4 7 5 3 4 4 5 4 5 3 4 8 6 5 5 4 3 3 3 3 4 5 6 7 7 6 6 7 8 8 8 8 8 8 8 8 9
11 8 8 7 8 7 5 8 7 0 2 1 2 3 4 4 3 6 7 7 7 6 5 5 4 3 3 3 5 6 5 4 5 6 7 7 7 7 6 8 7 7 7 8
10 9 6 7 6 1 4 4 1 0 2 2 3 3 4 4 6 8 8 8 8 7 7 6 5 4 3 3 4 5 4 5 5 7 7 7 7 7 6 6 6 5 5 4
7 6 5 6 7 5 5 4 3 2 3 3 3 3 5 6 6 8 8 9 9 8 7 7 7 6 5 4 4 5 5 5 6 7 7 6 6 6 6 5 4 4 3 3
6 9 7 7 5 3 4 4 2 1 2 2 3 4 5 6 7 9 9 10 9 8 8 7 7 7 7 6 5 5 6 6 7 7 6 5 5 5 5 5 5 4 4 4
7 8 9 7 6 5 4 3 1 2 3 4 4 4 5 6 7 8 9 9 9 9 9 8 8 8 8 7 6 6 6 6 7 6 5 4 4 3 3 4 5 7 6 7
Wind_Direction
175 184 189 188 194 217 183 187 187 186 158 206 227 243 250 254 253 257 262 267 270 277 296 310 310 303 288 275 266 258 252 244 237 231 224 221 223 225 225 223 223 222 221 218
168 199 189 179 178 174 178 184 176 151 153 225 242 256 259 264 262 271 274 274 281 309 24 28 14 5 341 314 294 277 262 255 244 236 233 230 230 229 228 226 225 223 221 219
175 171 168 174 176 166 178 188 176 154 148 160 270 247 180 123 119 101 92 98 88 65 47 33 27 24 13 356 332 309 292 276 261 252 244 239 236 235 230 227 225 223 221 219
141 153 170 178 183 182 169 167 159 157 194 178 274 252 138 124 119 105 103 96 79 58 40 30 22 18 13 0 343 325 311 295 282 265 248 238 232 232 231 230 229 226 221 220
134 167 176 182 183 183 131 118 123 143 195 226 211 242 151 152 140 123 111 91 65 38 21 15 11 2 360 356 345 333 324 314 302 281 261 252 245 244 243 238 236 232 224 220
77 61 145 153 121 130 123 105 89 97 218 236 208 222 182 167 153 141 132 98 46 19 9 5 5 358 356 353 347 339 330 325 318 301 279 258 254 252 249 245 242 238 231 222
85 63 56 103 108 108 150 154 161 184 206 221 145 225 219 145 152 163 157 79 8 359 358 358 359 356 353 348 345 337 332 326 324 314 297 281 267 260 254 251 246 243 238 229
124 109 60 96 138 158 175 200 215 205 198 162 174 229 147 149 198 225 238 268 319 347 357 355 354 349 346 343 341 338 333 326 324 318 309 296 282 269 262 256 252 248 244 238
129 103 69 65 96 151 160 189 317 359 90 228 193 213 235 187 189 194 207 268 339 351 354 353 352 350 346 343 342 337 331 326 324 319 312 302 292 280 272 268 262 256 251 248
116 118 117 124 111 52 97 142 162 198 214 221 187 201 171 167 168 174 201 345 347 350 353 354 354 351 348 346 341 341 337 331 326 321 315 309 304 297 287 278 269 261 255 247
110 119 130 153 185 168 151 164 190 184 258 255 202 147 141 159 159 169 339 343 342 348 351 353 352 351 350 351 351 349 347 343 338 332 324 317 313 311 302 289 281 272 260 245
102 115 123 121 36 292 232 196 186 201 197 228 271 127 120 178 194 265 315 334 343 349 352 354 354 356 358 358 357 354 350 346 341 335 330 328 324 321 316 310 304 293 275 252
135 130 129 150 185 189 209 194 195 144 136 188 226 141 121 189 232 285 316 332 344 350 354 356 2 4 3 360 358 354 352 349 345 344 343 344 343 340 337 337 340 346 4 62
120 133 196 188 155 167 190 193 187 176 193 204 232 248 204 232 289 321 334 339 344 354 357 360 2 6 6 1 357 356 356 354 352 353 360 3 1 1 5 11 22 34 49 72
126 121 113 95 111 162 201 199 197 207 215 223 233 250 267 288 306 315 323 332 338 351 359 4 3 4 3 2 360 360 359 0 359 5 13 14 13 19 28 35 42 50 58 65
122 126 137 178 191 218 241 226 214 220 229 240 258 273 270 283 288 299 317 327 332 350 359 4 5 4 3 3 2 2 4 4 8 18 22 24 28 34 40 45 51 57 62 68
153 145 165 185 171 243 249 225 209 207 212 219 232 243 267 284 300 316 320 312 325 354 2 8 8 8 5 4 5 8 9 12 23 29 31 34 39 44 45 51 57 62 66 72
161 156 162 177 196 240 230 135 202 215 224 221 237 253 270 289 311 310 282 250 120 52 24 24 16 17 13 14 18 21 24 29 36 39 39 42 49 54 56 59 61 61 65 70
175 167 174 208 250 271 259 191 181 194 230 223 233 254 272 295 286 217 169 155 119 106 70 49 38 35 31 32 33 40 43 43 44 42 42 47 56 62 64 63 62 62 67 69
159 183 202 210 249 254 94 132 170 186 205 177 209 242 266 257 259 145 150 158 146 133 121 96 81 74 61 54 54 60 55 51 46 43 48 54 61 66 68 68 67 67 70 72
171 186 209 220 247 268 237 141 158 201 155 151 207 242 244 231 279 108 147 155 150 145 136 122 106 89 73 74 80 72 63 53 49 54 58 59 63 69 74 76 74 77 80 81
186 189 199 203 224 243 149 161 194 191 74 201 238 240 239 229 167 158 166 164 162 157 151 143 131 112 91 96 103 92 76 70 73 74 70 65 66 71 78 85 84 86 92 93
204 203 197 210 224 30 164 196 203 14 263 266 252 239 226 214 200 187 182 176 173 169 161 157 152 141 125 118 126 117 112 112 103 92 84 81 80 77 79 85 90 88 86 89
206 202 215 236 243 240 234 238 259 260 261 271 257 242 223 222 207 192 185 181 179 176 171 167 165 162 153 143 136 130 132 130 120 107 99 94 90 86 81 76 74 79 81 90
185 178 205 234 243 234 219 205 215 273 281 284 270 242 234 226 213 199 191 187 182 177 175 176 177 171 163 157 148 144 145 143 127 116 109 102 94 97 89 78 67 67 58 45
188 188 194 213 201 201 175 126 38 306 307 311 292 264 235 224 219 203 197 188 182 179 176 179 181 175 167 165 158 156 158 156 141 132 128 121 117 109 105 105 96 73 72 77